FCK1EL EDDH-HAM

Flight info

Callsign FCK1EL
Flight time N/A
Altitude 5000
Route EDDH1G/33 EDDH/33 DCT STAY1/0010 STAY2/0030 DCT
Aircraft B350/L-SBGRY/LB1

Departure

Time 2026-05-07 22:52
Airport Hamburg Helmut Schmidt Airport (EDDH)

Arrival

Time N/A
Airport HAM
Time Latitude Longitude Altitude Speed Heading
2026-05-07 22:35 53.62405 10.00518 46 ft 0 kts 242°
2026-05-07 22:43 53.62404 10.00517 46 ft 1 kts 242°
2026-05-07 22:43 53.62421 10.00429 46 ft 15 kts 325°
2026-05-07 22:44 53.62503 10.00360 46 ft 14 kts 334°
2026-05-07 22:44 53.62585 10.00293 46 ft 13 kts 334°
2026-05-07 22:44 53.62670 10.00223 46 ft 14 kts 334°
2026-05-07 22:44 53.62759 10.00146 46 ft 16 kts 331°
2026-05-07 22:45 53.62899 10.00033 46 ft 15 kts 338°
2026-05-07 22:45 53.62962 9.99985 46 ft 14 kts 333°
2026-05-07 22:45 53.63102 9.99868 46 ft 29 kts 333°
2026-05-07 22:45 53.63209 9.99777 46 ft 10 kts 333°
2026-05-07 22:46 53.63282 9.99758 46 ft 8 kts 46°
2026-05-07 22:46 53.63326 9.99859 46 ft 15 kts 50°
2026-05-07 22:46 53.63399 10.00006 46 ft 8 kts 51°
2026-05-07 22:46 53.63460 10.00053 46 ft 10 kts 338°
2026-05-07 22:47 53.63524 9.99909 45 ft 24 kts 306°
2026-05-07 22:47 53.63584 9.99760 47 ft 19 kts 306°
2026-05-07 22:47 53.63684 9.99531 46 ft 17 kts 307°
2026-05-07 22:47 53.63774 9.99326 46 ft 18 kts 306°
2026-05-07 22:48 53.63838 9.99176 46 ft 22 kts 306°
2026-05-07 22:48 53.63890 9.99054 46 ft 4 kts 305°
2026-05-07 22:48 53.63893 9.99046 46 ft 0 kts 304°
2026-05-07 22:51 53.63904 9.99020 45 ft 14 kts 305°
2026-05-07 22:51 53.64038 9.98757 46 ft 41 kts 323°
2026-05-07 22:51 53.64401 9.98423 47 ft 88 kts 334°
2026-05-07 22:51 53.65094 9.97846 177 ft 126 kts 338°
2026-05-07 22:52 53.65935 9.97199 698 ft 134 kts 338°
2026-05-07 22:52 53.66815 9.96571 1281 ft 145 kts 343°
2026-05-07 22:52 53.67828 9.95702 1587 ft 166 kts 332°
2026-05-07 22:52 53.68753 9.94784 2483 ft 148 kts 332°
2026-05-07 22:53 53.69662 9.93889 3015 ft 152 kts 333°
2026-05-07 22:53 53.70608 9.93178 3582 ft 146 kts
2026-05-07 22:53 53.71508 9.93791 4110 ft 142 kts 32°
2026-05-07 22:53 53.72364 9.94618 4668 ft 141 kts 33°
2026-05-07 22:54 53.73232 9.95493 4953 ft 154 kts 34°
2026-05-07 22:54 53.74207 9.96493 5026 ft 173 kts 34°
2026-05-07 22:54 53.75255 9.97578 5025 ft 176 kts 34°
2026-05-07 22:54 53.76296 9.98655 5027 ft 175 kts 34°
2026-05-07 22:55 53.77338 9.99732 5024 ft 176 kts 34°
2026-05-07 22:55 53.78380 10.00808 5025 ft 175 kts 34°
2026-05-07 22:55 53.79421 10.01885 5027 ft 175 kts 34°
2026-05-07 22:55 53.80462 10.02962 5026 ft 176 kts 34°
2026-05-07 22:56 53.81504 10.04042 5023 ft 176 kts 34°
2026-05-07 22:56 53.82545 10.05121 5016 ft 176 kts 34°
2026-05-07 22:56 53.83595 10.06189 5017 ft 176 kts 34°
2026-05-07 22:56 53.84651 10.07248 5017 ft 177 kts 34°
2026-05-07 22:57 53.85610 10.08503 5016 ft 172 kts 52°
2026-05-07 22:57 53.86371 10.10064 5019 ft 172 kts 54°
2026-05-07 22:57 53.87114 10.11619 5017 ft 167 kts 54°
2026-05-07 22:57 53.87727 10.13203 5015 ft 156 kts 81°
2026-05-07 22:58 53.87749 10.14990 5020 ft 150 kts 93°
2026-05-07 22:58 53.87696 10.16746 5014 ft 148 kts 94°
2026-05-07 22:58 53.87555 10.18422 5015 ft 141 kts 121°
2026-05-07 22:58 53.86753 10.19267 5028 ft 138 kts 158°
2026-05-07 22:59 53.85903 10.19931 5016 ft 132 kts 133°
2026-05-07 22:59 53.85232 10.20947 5014 ft 131 kts 139°
2026-05-07 22:59 53.84446 10.21743 5015 ft 133 kts 153°
2026-05-07 22:59 53.83550 10.22106 5021 ft 134 kts 178°
2026-05-07 23:00 53.82617 10.22094 5021 ft 135 kts 177°
2026-05-07 23:00 53.81678 10.22024 5021 ft 135 kts 178°
2026-05-07 23:00 53.80739 10.21933 5023 ft 136 kts 179°
2026-05-07 23:00 53.79790 10.21828 5021 ft 137 kts 180°
2026-05-07 23:01 53.78836 10.21717 5025 ft 138 kts 180°
2026-05-07 23:01 53.77878 10.21603 5025 ft 138 kts 180°
2026-05-07 23:01 53.76919 10.21490 5026 ft 138 kts 180°
2026-05-07 23:01 53.75961 10.21376 5026 ft 138 kts 180°
2026-05-07 23:02 53.75002 10.21264 5027 ft 138 kts 180°
2026-05-07 23:02 53.74044 10.21150 5026 ft 138 kts 180°
2026-05-07 23:02 53.73086 10.21037 5026 ft 138 kts 180°
2026-05-07 23:02 53.72131 10.20924 5027 ft 138 kts 180°
2026-05-07 23:03 53.71173 10.20811 5026 ft 138 kts 180°
2026-05-07 23:03 53.70216 10.20700 5025 ft 138 kts 180°
2026-05-07 23:03 53.69260 10.20589 5020 ft 138 kts 180°
2026-05-07 23:03 53.68305 10.20479 5020 ft 138 kts 180°
2026-05-07 23:04 53.67348 10.20368 5019 ft 138 kts 180°
2026-05-07 23:04 53.66390 10.20257 5019 ft 138 kts 180°
2026-05-07 23:04 53.65436 10.20146 5018 ft 138 kts 180°
2026-05-07 23:04 53.64477 10.20030 5017 ft 138 kts 181°
2026-05-07 23:05 53.63518 10.19912 5018 ft 138 kts 180°
2026-05-07 23:05 53.62561 10.19797 5018 ft 138 kts 180°
2026-05-07 23:05 53.61600 10.19683 5019 ft 138 kts 180°
2026-05-07 23:05 53.60642 10.19571 5020 ft 138 kts 180°
2026-05-07 23:06 53.59684 10.19459 5018 ft 138 kts 180°
2026-05-07 23:06 53.58739 10.19349 5016 ft 138 kts 180°
2026-05-07 23:06 53.57784 10.19240 5016 ft 138 kts 180°
2026-05-07 23:06 53.56826 10.19124 5016 ft 138 kts 180°
2026-05-07 23:07 53.55867 10.19010 5022 ft 138 kts 179°
2026-05-07 23:07 53.54903 10.18898 5021 ft 139 kts 179°
2026-05-07 23:07 53.53940 10.18786 5022 ft 139 kts 179°
2026-05-07 23:07 53.52974 10.18672 5024 ft 139 kts 179°
2026-05-07 23:08 53.52005 10.18558 5021 ft 139 kts 179°
2026-05-07 23:08 53.51065 10.18631 5010 ft 131 kts 145°
2026-05-07 23:08 53.50678 10.19863 5029 ft 124 kts 95°
2026-05-07 23:08 53.50596 10.21313 5023 ft 125 kts 94°
2026-05-07 23:09 53.50525 10.22777 5022 ft 126 kts 94°
2026-05-07 23:09 53.50452 10.24246 5023 ft 127 kts 94°
2026-05-07 23:09 53.50379 10.25724 5026 ft 127 kts 94°
2026-05-07 23:09 53.50307 10.27203 5024 ft 127 kts 94°
2026-05-07 23:10 53.50341 10.28658 5018 ft 126 kts 61°
2026-05-07 23:10 53.51078 10.29435 5024 ft 131 kts 25°
2026-05-07 23:10 53.51941 10.29967 5026 ft 135 kts 24°
2026-05-07 23:10 53.52906 10.30598 5043 ft 164 kts 30°
2026-05-07 23:11 53.53957 10.31605 5049 ft 183 kts 33°
2026-05-07 23:11 53.55081 10.32746 5033 ft 193 kts 34°
2026-05-07 23:11 53.56248 10.33949 5036 ft 200 kts 34°
2026-05-07 23:11 53.57444 10.35194 5037 ft 203 kts 34°
2026-05-07 23:12 53.58654 10.36455 5036 ft 205 kts 34°
2026-05-07 23:12 53.59870 10.37723 5035 ft 206 kts 34°
2026-05-07 23:12 53.61093 10.38999 5038 ft 207 kts 34°
2026-05-07 23:12 53.62316 10.40276 5037 ft 207 kts 34°
2026-05-07 23:13 53.63541 10.41555 5039 ft 207 kts 34°
2026-05-07 23:13 53.64751 10.42738 5029 ft 192 kts 22°
2026-05-07 23:13 53.66011 10.42565 5018 ft 185 kts 331°
2026-05-07 23:13 53.66844 10.41002 5021 ft 176 kts 306°
2026-05-07 23:14 53.67483 10.39303 5022 ft 168 kts 298°
2026-05-07 23:14 53.67796 10.37446 5022 ft 164 kts 276°
2026-05-07 23:14 53.67917 10.35558 5022 ft 160 kts 275°
2026-05-07 23:14 53.68005 10.33702 5019 ft 158 kts 274°
2026-05-07 23:15 53.68085 10.31861 5024 ft 156 kts 274°
2026-05-07 23:15 53.68161 10.30039 5008 ft 156 kts 274°
2026-05-07 23:15 53.68236 10.28219 5007 ft 155 kts 274°
2026-05-07 23:15 53.68311 10.26410 5007 ft 154 kts 274°
2026-05-07 23:16 53.68385 10.24610 5012 ft 154 kts 274°
2026-05-07 23:16 53.68459 10.22807 5010 ft 154 kts 274°
2026-05-07 23:16 53.68533 10.21006 5008 ft 154 kts 274°
2026-05-07 23:16 53.68606 10.19212 5007 ft 153 kts 274°
2026-05-07 23:17 53.68679 10.17422 5005 ft 154 kts 274°
2026-05-07 23:17 53.68753 10.15619 5005 ft 154 kts 274°
2026-05-07 23:17 53.68828 10.13821 5004 ft 154 kts 274°
2026-05-07 23:17 53.68906 10.12026 5006 ft 153 kts 274°
2026-05-07 23:18 53.68982 10.10233 5008 ft 153 kts 274°
2026-05-07 23:18 53.69056 10.08437 5007 ft 154 kts 274°
2026-05-07 23:18 53.69132 10.06640 5006 ft 153 kts 274°
2026-05-07 23:18 53.69206 10.04845 5006 ft 153 kts 274°
2026-05-07 23:19 53.69279 10.03057 5010 ft 154 kts 274°
2026-05-07 23:19 53.69354 10.01248 5010 ft 154 kts 274°
2026-05-07 23:19 53.69429 9.99449 5011 ft 154 kts 274°
2026-05-07 23:19 53.69504 9.97648 5010 ft 154 kts 274°
2026-05-07 23:20 53.69579 9.95850 5011 ft 154 kts 274°
2026-05-07 23:20 53.69653 9.94048 5011 ft 154 kts 274°
2026-05-07 23:20 53.69727 9.92240 5011 ft 154 kts 274°
2026-05-07 23:20 53.69803 9.90439 5010 ft 154 kts 274°
2026-05-07 23:21 53.69878 9.88634 5010 ft 154 kts 274°
2026-05-07 23:21 53.69843 9.86856 5005 ft 151 kts 242°
2026-05-07 23:21 53.69053 9.85953 5022 ft 139 kts 173°
2026-05-07 23:21 53.68138 9.86437 5031 ft 152 kts 154°
2026-05-07 23:22 53.67082 9.87186 5039 ft 175 kts 154°
2026-05-07 23:22 53.65915 9.88037 5036 ft 189 kts 154°
2026-05-07 23:22 53.64683 9.88938 5029 ft 197 kts 154°
2026-05-07 23:22 53.63414 9.89868 5023 ft 201 kts 154°
2026-05-07 23:23 53.62129 9.90812 5025 ft 202 kts 154°
2026-05-07 23:23 53.60837 9.91763 5022 ft 203 kts 154°
2026-05-07 23:23 53.59540 9.92719 5024 ft 204 kts 154°
2026-05-07 23:23 53.58239 9.93677 5029 ft 204 kts 154°
2026-05-07 23:24 53.56932 9.94625 5017 ft 205 kts 154°
2026-05-07 23:24 53.55624 9.95559 5019 ft 205 kts 154°
2026-05-07 23:24 53.54313 9.96493 5018 ft 204 kts 154°
2026-05-07 23:24 53.53002 9.97425 5021 ft 204 kts 154°
2026-05-07 23:25 53.51693 9.98357 5019 ft 205 kts 154°
2026-05-07 23:25 53.50827 9.98973 5021 ft 205 kts 154°
2026-05-07 23:25 53.49495 9.99921 5020 ft 204 kts 154°
2026-05-07 23:25 53.48203 10.00840 5020 ft 205 kts 154°
2026-05-07 23:26 53.46892 10.01770 5024 ft 205 kts 154°
2026-05-07 23:26 53.45589 10.02695 4919 ft 204 kts 154°
2026-05-07 23:26 53.44286 10.03617 4839 ft 199 kts 154°
2026-05-07 23:26 53.43036 10.04496 4836 ft 192 kts 154°
2026-05-07 23:27 53.40619 10.06186 4788 ft 186 kts 154°
2026-05-07 23:27 53.39430 10.07013 4667 ft 185 kts 154°
2026-05-07 23:27 53.38269 10.07914 4492 ft 182 kts 139°
2026-05-07 23:28 53.37742 10.09710 4351 ft 176 kts 88°
2026-05-07 23:28 53.38271 10.11496 4143 ft 179 kts 43°
2026-05-07 23:28 53.39327 10.12639 3894 ft 183 kts 27°
2026-05-07 23:28 53.40543 10.13311 3676 ft 184 kts 20°
2026-05-07 23:29 53.41777 10.13878 3412 ft 183 kts 19°
2026-05-07 23:29 53.43053 10.14145 3133 ft 186 kts
2026-05-07 23:29 53.44319 10.14157 3057 ft 177 kts
2026-05-07 23:29 53.45520 10.14144 3018 ft 169 kts
2026-05-07 23:30 53.46654 10.13718 3009 ft 169 kts 339°
2026-05-07 23:30 53.47693 10.12833 3005 ft 166 kts 336°
2026-05-07 23:30 53.48705 10.11937 3006 ft 163 kts 336°
2026-05-07 23:30 53.49708 10.11070 2976 ft 163 kts 337°
2026-05-07 23:31 53.50739 10.10187 2849 ft 168 kts 336°
2026-05-07 23:31 53.51799 10.09279 2670 ft 173 kts 336°
2026-05-07 23:31 53.52862 10.08363 2480 ft 167 kts 336°
2026-05-07 23:31 53.53872 10.07492 2252 ft 159 kts 336°
2026-05-07 23:32 53.54842 10.06659 2021 ft 154 kts 337°
2026-05-07 23:32 53.55772 10.05860 1802 ft 146 kts 337°
2026-05-07 23:32 53.56660 10.05096 1591 ft 141 kts 337°
2026-05-07 23:32 53.57508 10.04368 1379 ft 135 kts 337°
2026-05-07 23:33 53.58327 10.03657 1193 ft 130 kts 337°
2026-05-07 23:33 53.59126 10.02970 1001 ft 128 kts 337°
2026-05-07 23:33 53.59917 10.02293 799 ft 126 kts 335°
2026-05-07 23:33 53.60691 10.01658 636 ft 117 kts 335°
2026-05-07 23:34 53.61382 10.01058 468 ft 109 kts 334°
2026-05-07 23:34 53.62043 10.00461 283 ft 107 kts 333°
2026-05-07 23:34 53.62687 9.99892 121 ft 102 kts 336°
2026-05-07 23:34 53.63294 9.99386 55 ft 92 kts 334°
2026-05-07 23:35 53.63841 9.98920 45 ft 85 kts 334°
2026-05-07 23:35 53.64342 9.98480 47 ft 79 kts 333°
2026-05-07 23:35 53.64894 9.98030 109 ft 109 kts 336°
2026-05-07 23:35 53.65694 9.97449 460 ft 133 kts 335°
2026-05-07 23:36 53.66557 9.96608 919 ft 153 kts 334°
2026-05-07 23:36 53.67504 9.95745 1567 ft 156 kts 335°
2026-05-07 23:36 53.68473 9.94893 2254 ft 157 kts 336°
2026-05-07 23:36 53.69448 9.94047 2935 ft 158 kts 336°
2026-05-07 23:37 53.70429 9.93191 3610 ft 160 kts 336°
2026-05-07 23:37 53.71466 9.92279 3996 ft 181 kts 335°
2026-05-07 23:37 53.72676 9.91224 4033 ft 208 kts 335°
2026-05-07 23:37 53.74017 9.90066 4028 ft 221 kts 335°
2026-05-07 23:38 53.75354 9.88914 4025 ft 211 kts 335°
2026-05-07 23:38 53.76397 9.87268 4018 ft 209 kts 295°
2026-05-07 23:38 53.76456 9.84864 4022 ft 206 kts 246°
2026-05-07 23:38 53.75655 9.82933 4027 ft 203 kts 226°
2026-05-07 23:39 53.74680 9.81156 4024 ft 203 kts 224°
2026-05-07 23:39 53.73723 9.79450 4025 ft 203 kts 224°
2026-05-07 23:39 53.72752 9.77726 4025 ft 203 kts 224°
2026-05-07 23:39 53.71776 9.75996 4025 ft 203 kts 224°
2026-05-07 23:40 53.70807 9.74276 4024 ft 202 kts 224°
2026-05-07 23:40 53.69825 9.72534 4024 ft 211 kts 224°
2026-05-07 23:40 53.68784 9.70697 4022 ft 220 kts 224°
2026-05-07 23:40 53.67712 9.68808 4027 ft 225 kts 224°
2026-05-07 23:41 53.66613 9.66937 4022 ft 223 kts 215°
2026-05-07 23:41 53.65216 9.65890 4027 ft 220 kts 193°
2026-05-07 23:41 53.63767 9.65240 4008 ft 209 kts 191°
2026-05-07 23:41 53.62355 9.64644 3778 ft 210 kts 191°
2026-05-07 23:42 53.60940 9.64053 3572 ft 209 kts 191°
2026-05-07 23:42 53.59527 9.63454 3304 ft 210 kts 191°
2026-05-07 23:42 53.58109 9.63245 2950 ft 203 kts 163°
2026-05-07 23:42 53.56789 9.64013 2704 ft 199 kts 155°
2026-05-07 23:43 53.55510 9.64900 2433 ft 198 kts 154°
2026-05-07 23:43 53.54244 9.65795 2167 ft 197 kts 154°
2026-05-07 23:43 53.53173 9.67029 2067 ft 183 kts 128°
2026-05-07 23:43 53.52426 9.68678 2030 ft 176 kts 124°
2026-05-07 23:44 53.51739 9.70370 2011 ft 170 kts 114°
2026-05-07 23:44 53.51525 9.72251 2008 ft 167 kts 87°
2026-05-07 23:44 53.51647 9.74190 2004 ft 166 kts 84°
2026-05-07 23:44 53.51795 9.76114 2003 ft 166 kts 84°
2026-05-07 23:45 53.51951 9.78063 1884 ft 169 kts 82°
2026-05-07 23:45 53.52435 9.79891 1759 ft 175 kts 61°
2026-05-07 23:45 53.53096 9.81625 1632 ft 176 kts 56°
2026-05-07 23:45 53.54064 9.82932 1525 ft 181 kts 35°
2026-05-07 23:46 53.55136 9.83994 1533 ft 177 kts 34°
2026-05-07 23:46 53.56173 9.85076 1518 ft 172 kts 46°
2026-05-07 23:46 53.56951 9.86559 1520 ft 169 kts 52°
2026-05-07 23:46 53.57724 9.88079 1404 ft 174 kts 53°
2026-05-07 23:47 53.58518 9.89685 1169 ft 181 kts 53°
2026-05-07 23:47 53.59311 9.91286 1158 ft 175 kts 53°
2026-05-07 23:47 53.60081 9.92848 1154 ft 172 kts 53°
2026-05-07 23:47 53.60837 9.94400 1142 ft 170 kts 53°
2026-05-07 23:48 53.61582 9.95942 1145 ft 170 kts 54°
2026-05-07 23:48 53.62333 9.97469 1134 ft 169 kts 46°
2026-05-07 23:48 53.63441 9.98109 1144 ft 175 kts
2026-05-07 23:48 53.64669 9.98161 1156 ft 177 kts
2026-05-07 23:49 53.65892 9.98181 1151 ft 176 kts
2026-05-07 23:49 53.67117 9.98204 1119 ft 176 kts
2026-05-07 23:49 53.68340 9.98227 1120 ft 175 kts
2026-05-07 23:49 53.69557 9.98245 1119 ft 175 kts
2026-05-07 23:50 53.70773 9.98264 1117 ft 174 kts
2026-05-07 23:50 53.71984 9.98281 1115 ft 174 kts
2026-05-07 23:50 53.73204 9.98296 1183 ft 177 kts
2026-05-07 23:50 53.74411 9.97990 1502 ft 177 kts 345°
2026-05-07 23:51 53.75579 9.97325 1797 ft 178 kts 344°
2026-05-07 23:51 53.76769 9.96626 1952 ft 183 kts 344°
2026-05-07 23:51 53.77940 9.95932 1992 ft 175 kts 344°
2026-05-07 23:51 53.79071 9.95203 2001 ft 174 kts 331°
2026-05-07 23:52 53.79700 9.93511 2009 ft 177 kts 273°
2026-05-07 23:52 53.79339 9.91609 2019 ft 170 kts 236°
2026-05-07 23:52 53.78703 9.89923 2020 ft 169 kts 234°
2026-05-07 23:52 53.77923 9.88539 2011 ft 160 kts 196°
2026-05-07 23:53 53.76849 9.88150 2021 ft 158 kts 185°
2026-05-07 23:53 53.75854 9.88490 2025 ft 148 kts 146°
2026-05-07 23:53 53.74977 9.89234 2000 ft 133 kts 150°
2026-05-07 23:53 53.74225 9.89892 2011 ft 110 kts 148°
2026-05-07 23:54 53.73562 9.90463 1838 ft 105 kts 148°
2026-05-07 23:54 53.72922 9.91026 1643 ft 103 kts 149°
2026-05-07 23:54 53.72291 9.91573 1440 ft 101 kts 149°
2026-05-07 23:54 53.71671 9.92111 1241 ft 100 kts 149°
2026-05-07 23:55 53.71092 9.92611 1103 ft 89 kts 149°
2026-05-07 23:55 53.70507 9.93087 1113 ft 96 kts 150°
2026-05-07 23:55 53.69904 9.93562 1119 ft 96 kts 149°
2026-05-07 23:55 53.69295 9.94057 998 ft 95 kts 149°
2026-05-07 23:56 53.68741 9.94565 862 ft 90 kts 145°
2026-05-07 23:56 53.68192 9.95101 734 ft 91 kts 146°
2026-05-07 23:56 53.67632 9.95629 589 ft 93 kts 149°
2026-05-07 23:56 53.67057 9.96127 462 ft 95 kts 151°
2026-05-07 23:57 53.66464 9.96644 369 ft 96 kts 148°
2026-05-07 23:57 53.65849 9.97162 239 ft 101 kts 150°
2026-05-07 23:57 53.65222 9.97689 105 ft 100 kts 151°
2026-05-07 23:57 53.64626 9.98218 54 ft 91 kts 152°
2026-05-07 23:58 53.64105 9.98664 48 ft 77 kts 150°
2026-05-07 23:58 53.63671 9.99065 45 ft 67 kts 150°
2026-05-07 23:58 53.63280 9.99396 47 ft 60 kts 153°
2026-05-07 23:58 53.63014 9.99617 44 ft 35 kts 153°
2026-05-07 23:59 53.62773 9.99823 44 ft 38 kts 152°
2026-05-07 23:59 53.62613 9.99962 43 ft 23 kts 152°
2026-05-07 23:59 53.62539 10.00050 43 ft 13 kts 109°
2026-05-07 23:59 53.62555 10.00154 44 ft 8 kts 63°
2026-05-08 00:00 53.62558 10.00163 44 ft 0 kts 64°
2026-05-08 00:00 53.62565 10.00189 45 ft 8 kts 64°
2026-05-08 00:00 53.62598 10.00314 46 ft 11 kts 71°
2026-05-08 00:00 53.62585 10.00422 46 ft 10 kts 135°
2026-05-08 00:01 53.62538 10.00463 46 ft 1 kts 181°
2026-05-08 00:01 53.62517 10.00432 46 ft 1 kts 240°
2026-05-08 00:01 53.62514 10.00422 46 ft 0 kts 243°